CW9181 Weather Reports


time (UTC)temp
C
wind
direction
speed
KPH
gust
KPH
rain 1hr
cm
rain 24hr
cm
rain mn
cm
humidity
%
barometer
mb
20260905001008 26 232 6.4 11.3 0.00 0.08 0.08 38 1012.6
20260905000011 26 246 3.2 12.9 0.00 0.08 0.08 39 1012.6
20260904235015 26 174 1.6 12.9 0.00 0.08 0.08 38 1012.8
20260904234015 26 203 4.8 11.3 0.00 0.08 0.08 40 1012.6
20260904233016 25 286 1.6 8.0 0.00 0.08 0.08 39 1012.8
20260904232020 25 270 3.2 14.5 0.00 0.08 0.08 41 1012.9
20260904231020 25 169 6.4 14.5 0.00 0.08 0.08 39 1013.1
20260904230021 25 181 4.8 12.9 0.00 0.08 0.08 39 1013.3
20260904225043 25 157 8.0 16.1 0.00 0.08 0.08 39 1013.2
20260904224018 25 150 6.4 16.1 0.00 0.08 0.08 41 1013.3
20260904223020 24 250 1.6 6.4 0.00 0.08 0.08 44 1013.4
20260904222022 24 199 8.0 16.1 0.00 0.08 0.08 43 1013.4
20260904221021 24 70 4.8 16.1 0.00 0.08 0.08 43 1013.4
20260904220023 24 286 6.4 17.7 0.00 0.08 0.08 45 1013.4
20260904215019 23 244 1.6 19.3 0.00 0.08 0.08 44 1013.4
20260904214020 23 170 4.8 12.9 0.00 0.08 0.08 44 1013.3
20260904213018 23 239 6.4 16.1 0.00 0.08 0.08 46 1013.4
20260904212021 23 239 6.4 17.7 0.00 0.08 0.08 47 1013.6
20260904211039 23 254 8.0 16.1 0.00 0.08 0.08 47 1013.5
20260904210020 23 174 8.0 17.7 0.00 0.08 0.08 49 1013.5
20260904205024 23 256 8.0 16.1 0.00 0.08 0.08 50 1013.6
20260904204019 23 238 4.8 12.9 0.00 0.08 0.08 50 1013.5
20260904203021 23 260 4.8 12.9 0.00 0.08 0.08 50 1013.6
20260904202023 23 157 9.7 16.1 0.00 0.08 0.08 51 1013.8
20260904201006 22 138 4.8 14.5 0.00 0.08 0.08 53 1013.8
20260904200008 23 235 3.2 12.9 0.00 0.08 0.08 53 1013.8
20260904195011 23 161 3.2 11.3 0.00 0.08 0.08 55 1013.9
20260904194014 23 66 3.2 12.9 0.00 0.08 0.08 55 1013.9
20260904193013 22 107 6.4 12.9 0.00 0.08 0.08 55 1014.1
20260904192013 22 146 6.4 12.9 0.00 0.08 0.08 56 1014.3
20260904191017 22 246 4.8 12.9 0.00 0.08 0.08 59 1014.4
20260904190009 22 181 4.8 14.5 0.00 0.08 0.08 58 1014.3
20260904185010 21 146 8.0 17.7 0.00 0.08 0.08 61 1014.3
20260904184014 21 116 6.4 17.7 0.00 0.08 0.08 62 1014.5
20260904183010 21 155 8.0 16.1 0.00 0.08 0.08 64 1014.4
20260904182011 21 132 9.7 16.1 0.00 0.08 0.08 64 1014.4
20260904181008 21 91 8.0 17.7 0.00 0.08 0.08 65 1014.5
20260904180008 20 180 11.3 20.9 0.00 0.08 0.08 66 1014.5
20260904175008 20 141 8.0 16.1 0.00 0.08 0.08 68 1014.6
20260904174009 20 154 1.6 12.9 0.00 0.08 0.08 70 1014.5
20260904173014 19 245 3.2 14.5 0.00 0.08 0.08 73 1014.5
20260904172010 20 117 4.8 12.9 0.00 0.08 0.08 72 1014.4
20260904171013 19 195 9.7 19.3 0.00 0.08 0.08 73 1014.4
20260904170019 18 217 8.0 17.7 0.00 0.08 0.08 73 1014.3
20260904165015 18 124 9.7 17.7 0.00 0.08 0.08 74 1014.2
20260904164014 18 128 4.8 16.1 0.00 0.08 0.08 78 1014.2
20260904163036 18 170 9.7 17.7 0.00 0.08 0.08 80 1014.1
20260904162015 18 145 9.7 16.1 0.00 0.08 0.08 80 1014.0
20260904161016 17 170 3.2 9.7 0.00 0.08 0.08 82 1013.9
20260904160041 17 186 6.4 12.9 0.00 0.08 0.08 84 1013.9
20260904155038 16 170 6.4 16.1 0.00 0.08 0.08 86 1013.9
20260904154022 16 167 6.4 12.9 0.00 0.08 0.08 88 1013.9
20260904153025 15 151 6.4 16.1 0.00 0.08 0.08 88 1013.7
20260904152022 15 170 8.0 12.9 0.00 0.08 0.08 89 1013.7
20260904151024 15 184 3.2 9.7 0.00 0.08 0.08 89 1013.7
20260904150009 15 178 6.4 12.9 0.00 0.08 0.08 89 1013.5
20260904145006 15 207 1.6 9.7 0.00 0.08 0.08 90 1013.5
20260904144008 15 188 0.0 6.4 0.00 0.08 0.08 90 1013.4
20260904143012 15 180 1.6 6.4 0.00 0.08 0.08 90 1013.3
20260904142010 15 228 3.2 9.7 0.00 0.08 0.08 90 1013.2
20260904141010 15 176 3.2 9.7 0.00 0.08 0.08 90 1013.0
20260904140035 15 191 3.2 6.4 0.00 0.08 0.08 90 1013.0
20260904135013 15 168 4.8 11.3 0.00 0.08 0.08 90 1012.6
20260904134018 15 174 4.8 11.3 0.00 0.08 0.08 90 1012.4
20260904133020 15 172 6.4 11.3 0.00 0.08 0.08 90 1012.5
20260904132014 16 161 3.2 8.0 0.00 0.08 0.08 91 1012.5
20260904131019 16 159 3.2 9.7 0.00 0.08 0.08 91 1012.5
20260904130021 16 180 4.8 11.3 0.00 0.08 0.08 91 1012.4
20260904125023 16 153 4.8 9.7 0.00 0.08 0.08 91 1012.3
20260904124020 16 187 4.8 9.7 0.00 0.08 0.08 91 1012.3
20260904123024 16 145 3.2 12.9 0.00 0.08 0.08 91 1012.2
20260904122007 16 175 4.8 12.9 0.00 0.08 0.08 91 1012.2
20260904121007 16 137 4.8 12.9 0.00 0.08 0.08 91 1012.0
20260904120015 16 157 4.8 11.3 0.00 0.08 0.08 91 1012.0
20260904115040 16 176 1.6 9.7 0.00 0.08 0.08 91 1012.0
20260904114019 16 164 3.2 8.0 0.00 0.08 0.08 91 1012.0
20260904113023 16 131 3.2 8.0 0.00 0.08 0.08 91 1012.0
20260904112007 16 181 3.2 9.7 0.00 0.08 0.08 91 1012.0
20260904111006 16 179 4.8 9.7 0.00 0.08 0.08 91 1011.9
20260904110027 16 139 4.8 6.4 0.00 0.08 0.08 91 1011.8
20260904105007 16 185 1.6 9.7 0.00 0.08 0.08 90 1011.9
20260904104024 16 151 4.8 9.7 0.00 0.08 0.08 91 1011.7
20260904103007 16 112 4.8 6.4 0.00 0.08 0.08 91 1011.6
20260904102014 16 174 1.6 6.4 0.00 0.08 0.08 90 1011.5
20260904101014 16 169 3.2 9.7 0.00 0.08 0.08 90 1011.6
20260904100016 16 199 3.2 9.7 0.00 0.08 0.08 90 1011.6
20260904095041 16 158 3.2 8.0 0.00 0.08 0.08 90 1011.6
20260904094040 17 186 3.2 8.0 0.00 0.08 0.08 90 1011.6
20260904093006 17 240 1.6 8.0 0.00 0.08 0.08 90 1011.6
20260904092011 17 189 1.6 6.4 0.00 0.08 0.08 90 1011.4
20260904091016 17 180 1.6 4.8 0.00 0.08 0.08 89 1011.3
20260904090017 17 184 1.6 6.4 0.03 0.08 0.08 89 1011.4
20260904085020 17 194 3.2 6.4 0.03 0.08 0.08 89 1011.5
20260904084042 17 179 1.6 6.4 0.05 0.08 0.08 89 1011.5
20260904083019 17 182 0.0 6.4 0.05 0.08 0.08 88 1011.5
20260904082023 17 159 1.6 11.3 0.08 0.08 0.08 88 1011.5
20260904081047 17 149 3.2 11.3 0.05 0.05 0.05 87 1011.6
20260904080022 17 153 3.2 9.7 0.05 0.05 0.05 87 1011.5
20260904075043 17 139 4.8 12.9 0.05 0.05 0.05 85 1011.4
20260904074022 18 186 6.4 14.5 0.03 0.03 0.03 85 1011.5
20260904073021 18 166 6.4 11.3 0.03 0.03 0.03 84 1011.6
20260904072008 18 146 3.2 11.3 0.00 0.00 0.00 84 1011.6
20260904071012 18 199 4.8 12.9 0.00 0.00 0.00 85 1011.6
20260904070024 18 193 1.6 11.3 0.00 0.00 0.00 85 1011.5
20260904065020 18 153 1.6 6.4 0.00 0.00 0.00 85 1011.5
20260904064042 18 160 1.6 3.2 0.00 0.00 0.00 86 1011.6
20260904063020 18 339 0.0 0.0 0.00 0.00 0.00 86 1011.6
20260904062041 18 339 0.0 0.0 0.00 0.00 0.00 85 1011.5
20260904061044 18 339 0.0 0.0 0.00 0.00 0.00 84 1011.5
20260904060017 18 339 0.0 0.0 0.00 0.00 0.00 84 1011.6
20260904055019 18 339 0.0 0.0 0.00 0.00 0.00 82 1011.5
20260904054021 18 339 0.0 0.0 0.00 0.00 0.00 82 1011.6
20260904053017 18 339 0.0 0.0 0.00 0.00 0.00 80 1011.7
20260904052015 18 339 0.0 0.0 0.00 0.00 0.00 79 1011.8
20260904051013 18 339 0.0 0.0 0.00 0.00 0.00 77 1011.7
20260904050007 19 339 0.0 0.0 0.00 0.00 0.00 77 1011.8
20260904045011 19 8 0.0 1.6 0.00 0.00 0.00 76 1011.7
20260904044012 19 99 0.0 4.8 0.00 0.00 0.00 75 1011.7
20260904043030 19 73 1.6 6.4 0.00 0.00 0.00 75 1011.5
20260904042031 19 260 1.6 4.8 0.00 0.00 0.00 75 1011.6
20260904041016 19 47 0.0 3.2 0.00 0.00 0.00 74 1011.6
20260904040025 19 16 1.6 4.8 0.00 0.00 0.00 74 1011.7
20260904035047 19 317 1.6 4.8 0.00 0.00 0.00 74 1011.7
20260904034010 19 1 3.2 8.0 0.00 0.00 0.00 73 1011.6
20260904033046 20 331 3.2 11.3 0.00 0.00 0.00 72 1011.4
20260904032021 20 327 4.8 8.0 0.00 0.00 0.00 72 1011.4
20260904031044 20 309 4.8 8.0 0.00 0.00 0.00 72 1011.3
20260904030024 20 287 4.8 14.5 0.00 0.00 0.00 70 1011.1
20260904025027 20 280 4.8 6.4 0.00 0.00 0.00 72 1011.2
20260904024026 21 278 0.0 6.4 0.00 0.00 0.00 72 1011.4
20260904023026 21 255 3.2 9.7 0.00 0.00 0.00 72 1011.4
20260904022028 21 260 4.8 8.0 0.00 0.00 0.00 71 1011.4
20260904021009 21 249 1.6 8.0 0.00 0.00 0.00 71 1011.3
20260904020012 21 236 4.8 12.9 0.00 0.00 0.00 70 1011.4
20260904015028 21 270 0.0 9.7 0.00 0.00 0.00 69 1011.4
20260904014011 21 260 6.4 14.5 0.00 0.00 0.00 69 1011.4
20260904013010 21 238 8.0 17.7 0.00 0.00 0.00 68 1011.6
20260904012010 21 289 8.0 19.3 0.00 0.00 0.00 67 1011.6
20260904011016 21 265 8.0 14.5 0.00 0.00 0.00 67 1011.6
20260904010018 22 254 8.0 19.3 0.00 0.00 0.00 67 1011.7
20260904005018 22 248 6.4 17.7 0.00 0.00 0.00 66 1011.8
20260904004017 22 189 9.7 19.3 0.00 0.00 0.00 65 1011.9
20260904003018 22 251 8.0 19.3 0.00 0.00 0.00 65 1011.8
20260904002041 22 254 8.0 17.7 0.00 0.00 0.00 64 1011.6